METEOSAT 6

导读 | 豆包AI

METEOSAT 6是欧洲气象卫星组织(EUMETSAT)所属的第二代地球静止轨道气象卫星,于1993年11月20日发射升空。该卫星属于欧洲METEOSAT系列气象卫星,运行在地球静止轨道,持续向地面提供云图、大气温度湿度等气象观测数据,为欧洲及周边区域的气象监测、天气预报和气候研究提供关键支撑,是欧洲气象观测体系的重要空间基础设施。

Basic Information
目录编号:
22912
目录名称:
METEOSAT 6
国际标识:
1993-073B
轨道中心:
EARTH
卫星名称:
METEOSAT 6
卫星全名:
--
卫星状态:
在轨 (已飞行11802 天)
发射日期:
1993-11-20 UTC
国别 :
(EUME)
星等 :
--
Orbit Information
数据来源 国际轨道数据 AOE轨道数据
星历时间 2026-03-13T09:39:39+0800
1天前
查看轨道信息
2026-03-13T10:00:00+0800
1天前
查看轨道信息
半长轴 42528.995km 42528.365km
偏心率 0.0008141 0.000811
轨道倾角 14.460° 14.461°
近地点辐角 247.750° 248.001°
升交点赤经 1.998° 1.997°
平近点角 297.124° 301.918°
近地点 36116.235km 36115.737km
远地点 36185.481km 36184.719km
周期 1454.747分钟 1454.714分钟
每日圈数 0.989863 0.989885
Detailed Information
使用方式:
暂无
2D Orbit Map
3D Orbit Map
Orbit Altitude Analysis Chart
Orbit Inclination Analysis Chart
Orbit Comprehensive Analysis Chart
View Comprehensive Chart